TimeCST,TemperatureF,Dew PointF,Humidity,Sea Level PressureIn,VisibilityMPH,Wind Direction,Wind SpeedMPH,Gust SpeedMPH,PrecipitationIn,Events,Conditions,WindDirDegrees,DateUTC
12:15 AM,12.2,5.0,73,30.08,7.0,North,15.0,20.7,N/A,,Overcast,350,2013-02-20 06:15:00
12:35 AM,12.2,5.0,73,30.09,7.0,NNW,12.7,20.7,N/A,,Overcast,330,2013-02-20 06:35:00
12:55 AM,12.2,5.0,73,30.09,7.0,North,12.7,-,N/A,,Overcast,350,2013-02-20 06:55:00
1:15 AM,12.2,5.0,73,30.10,10.0,NNW,15.0,19.6,N/A,,Overcast,340,2013-02-20 07:15:00
1:35 AM,12.2,5.0,73,30.11,5.0,NNW,17.3,21.9,N/A,,Haze,340,2013-02-20 07:35:00
1:55 AM,12.2,5.0,73,30.12,3.0,North,19.6,27.6,N/A,,Haze,350,2013-02-20 07:55:00
2:15 AM,12.2,5.0,73,30.13,3.0,North,16.1,25.3,N/A,Snow,Light Snow,350,2013-02-20 08:15:00
2:55 AM,12.2,5.0,73,30.14,3.0,North,13.8,23.0,N/A,Snow,Light Snow,360,2013-02-20 08:55:00
3:15 AM,12.2,5.0,73,30.15,4.0,North,13.8,19.6,N/A,Snow,Light Snow,350,2013-02-20 09:15:00
3:35 AM,12.2,5.0,73,30.16,3.0,North,15.0,23.0,N/A,,Haze,10,2013-02-20 09:35:00
3:55 AM,12.2,6.8,79,30.16,3.0,North,12.7,17.3,N/A,Snow,Light Snow,350,2013-02-20 09:55:00
4:15 AM,12.2,6.8,79,30.18,3.0,North,11.5,16.1,N/A,Snow,Light Snow,350,2013-02-20 10:15:00
4:35 AM,12.2,6.8,79,30.19,2.5,North,13.8,17.3,N/A,Snow,Light Snow,360,2013-02-20 10:35:00
4:55 AM,12.2,6.8,79,30.19,4.0,North,12.7,18.4,N/A,Snow,Light Snow,350,2013-02-20 10:55:00
5:15 AM,12.2,6.8,79,30.21,2.5,North,15.0,23.0,N/A,Snow,Light Snow,350,2013-02-20 11:15:00
5:35 AM,12.2,6.8,79,30.21,3.0,NNW,9.2,-,N/A,Snow,Light Snow,340,2013-02-20 11:35:00
5:55 AM,12.2,6.8,79,30.22,5.0,North,15.0,-,N/A,Snow,Light Snow,350,2013-02-20 11:55:00
6:15 AM,12.2,6.8,79,30.22,5.0,NNW,9.2,-,N/A,Snow,Light Snow,340,2013-02-20 12:15:00
6:35 AM,12.2,6.8,79,30.24,5.0,North,13.8,18.4,N/A,Snow,Light Snow,350,2013-02-20 12:35:00
6:55 AM,12.2,6.8,79,30.24,4.0,North,17.3,23.0,N/A,,Haze,350,2013-02-20 12:55:00
7:15 AM,12.2,6.8,79,30.25,5.0,North,15.0,-,N/A,,Haze,360,2013-02-20 13:15:00
7:35 AM,12.2,6.8,79,30.25,4.0,North,13.8,-,N/A,,Haze,360,2013-02-20 13:35:00
7:55 AM,12.2,6.8,79,30.25,4.0,North,13.8,-,N/A,,Haze,360,2013-02-20 13:55:00
8:15 AM,12.2,6.8,79,30.26,5.0,North,12.7,-,N/A,,Haze,350,2013-02-20 14:15:00
8:35 AM,12.2,6.8,79,30.26,3.0,North,17.3,20.7,N/A,,Haze,360,2013-02-20 14:35:00
8:55 AM,12.2,5.0,73,30.26,4.0,North,17.3,20.7,N/A,,Haze,350,2013-02-20 14:55:00
9:15 AM,12.2,5.0,73,30.26,4.0,North,15.0,18.4,N/A,,Haze,360,2013-02-20 15:15:00
9:35 AM,12.2,5.0,73,30.27,4.0,North,15.0,21.9,N/A,,Haze,360,2013-02-20 15:35:00
9:55 AM,12.2,5.0,73,30.27,3.0,North,16.1,-,N/A,,Haze,350,2013-02-20 15:55:00
10:15 AM,12.2,5.0,73,30.27,5.0,North,15.0,21.9,N/A,,Haze,360,2013-02-20 16:15:00
10:35 AM,14.0,6.8,73,30.27,5.0,NNW,11.5,-,N/A,Snow,Light Snow,340,2013-02-20 16:35:00
10:55 AM,14.0,8.6,79,30.27,5.0,North,15.0,-,N/A,,Haze,350,2013-02-20 16:55:00
11:15 AM,14.0,6.8,73,30.28,7.0,North,11.5,20.7,N/A,,Mostly Cloudy,10,2013-02-20 17:15:00
11:55 AM,17.6,8.6,68,30.27,7.0,North,11.5,16.1,N/A,,Mostly Cloudy,350,2013-02-20 17:55:00
12:15 PM,17.6,8.6,68,30.27,10.0,North,11.5,16.1,N/A,,Scattered Clouds,350,2013-02-20 18:15:00
12:35 PM,17.6,8.6,68,30.27,10.0,North,12.7,17.3,N/A,,Scattered Clouds,350,2013-02-20 18:35:00
12:55 PM,17.6,8.6,68,30.27,10.0,North,15.0,-,N/A,,Scattered Clouds,360,2013-02-20 18:55:00
1:15 PM,17.6,8.6,68,30.27,10.0,North,8.1,-,N/A,,Scattered Clouds,10,2013-02-20 19:15:00
1:35 PM,17.6,6.8,63,30.27,10.0,North,15.0,19.6,N/A,,Scattered Clouds,350,2013-02-20 19:35:00
1:55 PM,17.6,6.8,63,30.27,10.0,NNW,11.5,16.1,N/A,,Scattered Clouds,330,2013-02-20 19:55:00
2:15 PM,17.6,8.6,68,30.28,10.0,North,15.0,18.4,N/A,,Scattered Clouds,10,2013-02-20 20:15:00
2:55 PM,19.4,8.6,63,30.29,10.0,North,10.4,19.6,N/A,,Scattered Clouds,360,2013-02-20 20:55:00
3:15 PM,17.6,6.8,63,30.30,10.0,NNW,8.1,-,N/A,,Scattered Clouds,340,2013-02-20 21:15:00
3:35 PM,19.4,8.6,63,30.31,10.0,NNW,11.5,16.1,N/A,,Clear,340,2013-02-20 21:35:00
3:55 PM,17.6,6.8,63,30.32,10.0,NW,8.1,-,N/A,,Clear,320,2013-02-20 21:55:00
4:15 PM,17.6,6.8,63,30.33,10.0,NW,9.2,-,N/A,,Scattered Clouds,320,2013-02-20 22:15:00
4:35 PM,17.6,8.6,68,30.33,10.0,NW,9.2,-,N/A,,Scattered Clouds,320,2013-02-20 22:35:00
4:55 PM,17.6,8.6,68,30.34,10.0,NNW,6.9,-,N/A,,Mostly Cloudy,330,2013-02-20 22:55:00
5:15 PM,17.6,8.6,68,30.34,10.0,NNW,8.1,-,N/A,,Mostly Cloudy,330,2013-02-20 23:15:00
5:35 PM,14.0,6.8,73,30.35,10.0,NW,9.2,-,N/A,,Mostly Cloudy,320,2013-02-20 23:35:00
5:55 PM,14.0,8.6,79,30.35,10.0,NNW,8.1,-,N/A,Snow,Light Snow,330,2013-02-20 23:55:00
6:15 PM,12.2,5.0,73,30.35,10.0,North,10.4,-,N/A,Snow,Light Snow,350,2013-02-21 00:15:00
6:35 PM,12.2,5.0,73,30.36,10.0,North,10.4,-,N/A,,Clear,360,2013-02-21 00:35:00
6:55 PM,12.2,5.0,73,30.36,10.0,North,12.7,18.4,N/A,,Scattered Clouds,10,2013-02-21 00:55:00
7:15 PM,12.2,5.0,73,30.36,10.0,North,16.1,19.6,N/A,,Scattered Clouds,360,2013-02-21 01:15:00
7:35 PM,12.2,6.8,79,30.37,10.0,North,5.8,-,N/A,,Scattered Clouds,360,2013-02-21 01:35:00
7:55 PM,10.4,3.2,73,30.37,10.0,North,5.8,-,N/A,,Clear,360,2013-02-21 01:55:00
8:15 PM,10.4,5.0,79,30.36,10.0,North,5.8,-,N/A,,Clear,10,2013-02-21 02:15:00
8:35 PM,10.4,5.0,79,30.35,10.0,North,5.8,-,N/A,,Clear,10,2013-02-21 02:35:00
8:55 PM,5.0,1.4,85,30.34,10.0,North,4.6,-,N/A,,Clear,350,2013-02-21 02:55:00
9:15 PM,10.4,5.0,79,30.33,10.0,North,5.8,-,N/A,,Clear,10,2013-02-21 03:15:00
9:35 PM,6.8,1.4,79,30.33,10.0,North,6.9,-,N/A,,Clear,10,2013-02-21 03:35:00
9:55 PM,10.4,3.2,73,30.32,10.0,NNE,3.5,-,N/A,,Clear,20,2013-02-21 03:55:00
10:15 PM,10.4,3.2,73,30.32,10.0,NNE,4.6,-,N/A,,Clear,20,2013-02-21 04:15:00
10:35 PM,10.4,1.4,67,30.31,10.0,NNE,5.8,-,N/A,,Clear,20,2013-02-21 04:35:00
10:55 PM,10.4,1.4,67,30.31,10.0,Calm,Calm,-,N/A,,Clear,0,2013-02-21 04:55:00
11:15 PM,5.0,-0.4,78,30.31,10.0,Calm,Calm,-,N/A,,Clear,0,2013-02-21 05:15:00
11:35 PM,3.2,-2.2,78,30.32,10.0,Calm,Calm,-,N/A,,Clear,0,2013-02-21 05:35:00
11:55 PM,3.2,-0.4,85,30.32,10.0,Calm,Calm,-,N/A,,Clear,0,2013-02-21 05:55:00